Powrót do katalogu

COSMOS 1275 DEB

AktywnyPO
NORAD 17617·DEBRIS·🇷🇺 Russia

Wystrzelony Jun 4, 1981 z Plesetsk Cosmodrome

Loading…

Następne Przeloty (najbliższe 24 godziny)

TLE

ŚwieżeSource: Space-Track

Epoka: Sep 13, 2026, 10:22 UTC

1 17617U 81053KL  26256.43232707  .00000439  00000-0  45302-3 0  9991
2 17617  82.8566  55.6835 0174678 271.1319 115.9076 13.67756145 54359

Śledź COSMOS 1275 DEB w czasie rzeczywistym z AllMySat

Download on the App Store